This is the latest recevied weather packets stored in our database for station/object N8HON. If no packets are shown the sender has not sent any weather packets the latest 10 day(s).
| Time | Temp. | Humidity | Pressure | Rain* | Wind** | Luminosity | Snow |
|---|---|---|---|---|---|---|---|
| 1778159932 | 10° C | 82% | 1011.4 hPa | 0 mm | - | 88 W/m² | - |
| 1778159629 | 10° C | 82% | 1011.7 hPa | 0 mm | - | 63 W/m² | - |
| 1778159326 | 10° C | 82% | 1011.7 hPa | 0 mm | - | 56 W/m² | - |
| 1778159023 | 10° C | 84% | 1011.7 hPa | 0 mm | - | 47 W/m² | - |
| 1778158722 | 10° C | 84% | 1012 hPa | 0 mm | - | 48 W/m² | - |
| 1778158419 | 10° C | 85% | 1011.8 hPa | 0 mm | - | 39 W/m² | - |
| 1778158116 | 9.44° C | 86% | 1011.7 hPa | 0 mm | - | 34 W/m² | - |
| 1778157812 | 9.44° C | 87% | 1011.8 hPa | 0 mm | - | 23 W/m² | - |
| 1778157511 | 9.44° C | 88% | 1011.7 hPa | 0 mm | - | 22 W/m² | - |
| 1778157208 | 9.44° C | 89% | 1011.4 hPa | 0 mm | - | 26 W/m² | - |
| 1778156904 | 9.44° C | 88% | 1011.6 hPa | 0 mm | - | 26 W/m² | - |
| 1778156599 | 9.44° C | 88% | 1011.4 hPa | 0 mm | - | 22 W/m² | - |
| 1778156296 | 9.44° C | 89% | 1011.4 hPa | 0 mm | - | 20 W/m² | - |
| 1778155992 | 9.44° C | 89% | 1011.3 hPa | 0 mm | - | 19 W/m² | - |
| 1778155688 | 9.44° C | 89% | 1011.2 hPa | 0 mm | - | 19 W/m² | - |
| 1778155385 | 9.44° C | 89% | 1011 hPa | 0 mm | - | 15 W/m² | - |
| 1778155081 | 9.44° C | 88% | 1011.2 hPa | 0 mm | - | 16 W/m² | - |
| 1778154777 | 9.44° C | 88% | 1011.2 hPa | 0 mm | - | 10 W/m² | - |
| 1778154472 | 9.44° C | 89% | 1011.1 hPa | 0 mm | - | 12 W/m² | - |
| 1778154170 | 9.44° C | 89% | 1011 hPa | 0 mm | - | 10 W/m² | - |
| 1778153868 | 9.44° C | 89% | 1010.9 hPa | 0 mm | - | 10 W/m² | - |
| 1778153564 | 9.44° C | 89% | 1011.1 hPa | 0 mm | - | 12 W/m² | - |
| 1778153262 | 9.44° C | 89% | 1010.9 hPa | 0 mm | - | 15 W/m² | - |
| 1778152959 | 9.44° C | 89% | 1010.8 hPa | 0 mm | - | 8 W/m² | - |
| 1778152657 | 9.44° C | 90% | 1010.8 hPa | 0 mm | - | 11 W/m² | - |
* Rain latest hour (hover to see other rain measurements)
** Current wind speed in m/s (hover to see current wind gust speed)